Location: Unspecified
(0.0000°N, 0.0000°E)
Time: 04:17:30
(UTC+00:00)

Tiangong 2 - Pass Details

Date: 15 June 2019
Orbit: 376 x 388 km, 42.8° (Epoch: 26 June)

Event Time Altitude Azimuth Distance (km) Brightness Sun altitude
Exits shadow 04:30:47 29° 145° (SE) 727 2.5 -20.5°
Maximum altitude 04:31:02 30° 135° (SE) 719 2.6 -20.4°
Drops below altitude 10° 04:33:51 10° 71° (ENE) 1,397 5.1 -19.8°
Sets 04:36:03 0° 60° (ENE) 2,249 6.6 -19.3°
